Date String (YYYY-MM-DD hh:mm:ss) UTC,Instrument flags,Ambient pressure (hPa),Sample flow (lpm),Bypass flow (lpm),Sample temperature (°C),Ambient temperature (°C),ASC tube jacket temperature (°C),LED temperature (°C),Box temperature (°C),Sample RH (%),Span deviation,Mass concentration (μg/m³),Mass concentration (μg/m³),Mass concentration (μg/m³)
DateTimeUTC,F1_M11,P_M11,Q1_M11,Q2_M11,T1_M11,T2_M11,T3_M11,T4_M11,T5_M11,U1_M11,ZSPAN_M11,X0_M11,X2_M11,X1_M11
2022-09-10 07:00:00,,0830.3,4.99,0.00,29.4,27.8,00.0,38.2,31.2,25.9,0000.0,0002.92,0002.52,0002.44
2022-09-10 07:01:00,,0830.3,4.99,0.00,29.4,27.8,00.0,38.2,31.2,25.9,0000.0,0002.87,0002.50,0002.42
2022-09-10 07:02:00,,0830.3,5.00,0.00,29.4,27.8,00.0,38.2,31.2,25.9,0000.0,0002.78,0002.46,0002.41
2022-09-10 07:03:00,,0830.2,5.00,0.00,29.4,27.8,00.0,38.2,31.2,25.9,0000.0,0002.70,0002.41,0002.37
2022-09-10 07:04:00,,0830.2,5.00,0.00,29.4,27.8,00.0,38.2,31.2,25.9,0000.0,0002.67,0002.39,0002.36
2022-09-10 07:05:00,,0830.3,5.00,0.00,29.4,27.8,00.0,38.2,31.2,25.9,0000.0,0002.66,0002.39,0002.35
2022-09-10 07:06:00,,0830.2,4.99,0.00,29.4,27.7,00.0,38.2,31.2,25.9,0000.0,0002.66,0002.40,0002.35
2022-09-10 07:07:00,,0830.2,4.99,0.00,29.4,27.8,00.0,38.2,31.2,25.9,0000.0,0002.73,0002.43,0002.37
2022-09-10 07:08:00,,0830.2,5.00,0.00,29.4,27.8,00.0,38.2,31.2,26.0,0000.0,0002.72,0002.42,0002.36
2022-09-10 07:09:00,,0830.2,5.01,0.00,29.4,27.8,00.0,38.2,31.2,26.0,0000.0,0002.66,0002.39,0002.34
2022-09-10 07:10:00,,0830.2,5.01,0.00,29.4,27.8,00.0,38.2,31.2,26.0,0000.0,0002.60,0002.38,0002.33
2022-09-10 07:11:00,,0830.2,5.00,0.00,29.4,27.8,00.0,38.2,31.2,26.0,0000.0,0002.60,0002.37,0002.31
2022-09-10 07:12:00,,0830.2,5.01,0.00,29.4,27.8,00.0,38.2,31.2,26.8,0000.0,0002.58,0002.34,0002.28
2022-09-10 07:13:00,,0830.3,4.99,0.00,29.4,27.7,00.0,38.2,31.2,27.0,0000.0,0002.52,0002.29,0002.24
2022-09-10 07:14:00,,0830.3,5.00,0.00,29.4,27.7,00.0,38.2,31.2,26.5,0000.0,0002.51,0002.28,0002.21
2022-09-10 07:15:00,,0830.2,5.01,0.00,29.4,27.7,00.0,38.2,31.2,26.3,0000.0,0002.48,0002.24,0002.17
2022-09-10 07:16:00,,0830.3,5.01,0.00,29.4,27.7,00.0,38.2,31.2,26.2,0000.0,0002.39,0002.16,0002.09
2022-09-10 07:17:00,,0830.3,5.01,0.00,29.4,27.7,00.0,38.2,31.2,26.1,0000.0,0002.32,0002.08,0002.01
2022-09-10 07:18:00,,0830.3,4.98,0.00,29.4,27.7,00.0,38.1,31.2,26.1,0000.0,0002.17,0001.97,0001.92
2022-09-10 07:19:00,,0830.3,5.00,0.00,29.4,27.7,00.0,38.1,31.2,26.0,0000.0,0002.10,0001.89,0001.83
2022-09-10 07:20:00,,0830.2,5.01,0.00,29.4,27.7,00.0,38.1,31.2,25.9,0000.0,0002.05,0001.84,0001.77
2022-09-10 07:21:00,,0830.3,5.00,0.00,29.4,27.7,00.0,38.1,31.2,25.9,0000.0,0002.01,0001.79,0001.72
2022-09-10 07:22:00,,0830.4,4.99,0.00,29.4,27.7,00.0,38.1,31.1,25.8,0000.0,0001.96,0001.75,0001.68
2022-09-10 07:23:00,,0830.4,4.99,0.00,29.3,27.7,00.0,38.1,31.1,25.8,0000.0,0001.92,0001.71,0001.65
2022-09-10 07:24:00,,0830.4,5.00,0.00,29.3,27.7,00.0,38.1,31.1,25.8,0000.0,0001.89,0001.68,0001.62
2022-09-10 07:25:00,,0830.3,5.00,0.00,29.3,27.7,00.0,38.1,31.1,25.8,0000.0,0001.89,0001.66,0001.59
2022-09-10 07:26:00,,0830.3,5.00,0.00,29.3,27.7,00.0,38.1,31.1,25.8,0000.0,0001.91,0001.65,0001.57
2022-09-10 07:27:00,,0830.3,5.00,0.00,29.3,27.7,00.0,38.1,31.1,25.8,0000.0,0001.89,0001.63,0001.56
2022-09-10 07:28:00,,0830.3,5.00,0.00,29.3,27.7,00.0,38.1,31.1,25.8,0000.0,0001.88,0001.62,0001.54
2022-09-10 07:29:00,,0830.4,5.00,0.00,29.3,27.7,00.0,38.1,31.1,25.8,0000.0,0001.88,0001.61,0001.54
2022-09-10 07:30:00,,0830.3,5.00,0.00,29.3,27.7,00.0,38.1,31.1,25.8,0000.0,0001.82,0001.58,0001.51
2022-09-10 07:31:00,,0830.3,5.00,0.00,29.3,27.7,00.0,38.1,31.1,25.7,0000.0,0001.76,0001.53,0001.48
2022-09-10 07:32:00,,0830.3,4.99,0.00,29.3,27.7,00.0,38.1,31.1,25.7,0000.0,0001.71,0001.49,0001.44
2022-09-10 07:33:00,,0830.4,5.00,0.00,29.3,27.7,00.0,38.1,31.1,25.7,0000.0,0001.64,0001.44,0001.39
2022-09-10 07:34:00,,0830.4,5.00,0.00,29.3,27.7,00.0,38.1,31.1,25.8,0000.0,0001.59,0001.39,0001.35
2022-09-10 07:35:00,,0830.4,5.00,0.00,29.3,27.7,00.0,38.1,31.1,25.8,0000.0,0001.54,0001.36,0001.30
2022-09-10 07:36:00,,0830.4,5.01,0.00,29.3,27.7,00.0,38.1,31.1,25.8,0000.0,0001.44,0001.28,0001.26
2022-09-10 07:37:00,,0830.4,5.00,0.00,29.3,27.7,00.0,38.1,31.1,25.9,0000.0,0001.36,0001.22,0001.20
2022-09-10 07:38:00,,0830.4,5.00,0.00,29.3,27.7,00.0,38.1,31.1,25.9,0000.0,0001.36,0001.20,0001.17
2022-09-10 07:39:00,,0830.4,5.00,0.00,29.3,27.7,00.0,38.1,31.1,25.9,0000.0,0001.32,0001.17,0001.13
2022-09-10 07:40:00,,0830.4,4.99,0.00,29.3,27.7,00.0,38.1,31.1,26.0,0000.0,0001.31,0001.14,0001.10
2022-09-10 07:41:00,,0830.4,5.00,0.00,29.3,27.7,00.0,38.1,31.1,26.0,0000.0,0001.32,0001.14,0001.09
2022-09-10 07:42:00,,0830.4,5.00,0.00,29.3,27.7,00.0,38.1,31.1,26.0,0000.0,0001.36,0001.14,0001.09
2022-09-10 07:43:00,,0830.3,5.01,0.00,29.3,27.7,00.0,38.1,31.1,26.1,0000.0,0001.35,0001.14,0001.08
2022-09-10 07:44:00,,0830.4,5.00,0.00,29.3,27.7,00.0,38.1,31.1,26.1,0000.0,0001.35,0001.14,0001.08
2022-09-10 07:45:00,,0830.4,5.00,0.00,29.3,27.7,00.0,38.1,31.2,26.1,0000.0,0001.34,0001.13,0001.07
2022-09-10 07:46:00,,0830.4,4.99,0.00,29.3,27.7,00.0,38.1,31.1,26.1,0000.0,0001.34,0001.12,0001.06
2022-09-10 07:47:00,,0830.4,5.01,0.00,29.3,27.7,00.0,38.1,31.1,26.1,0000.0,0001.37,0001.14,0001.06
2022-09-10 07:48:00,,0830.5,4.99,0.00,29.3,27.7,00.0,38.1,31.1,26.0,0000.0,0001.34,0001.12,0001.05
2022-09-10 07:49:00,,0830.4,5.00,0.00,29.3,27.7,00.0,38.1,31.1,26.0,0000.0,0001.28,0001.09,0001.03
2022-09-10 07:50:00,,0830.4,5.01,0.00,29.3,27.7,00.0,38.1,31.1,26.0,0000.0,0001.25,0001.07,0001.02
2022-09-10 07:51:00,,0830.4,5.01,0.00,29.3,27.7,00.0,38.1,31.1,26.3,0000.0,0001.23,0001.07,0001.02
2022-09-10 07:52:00,,0830.4,5.00,0.00,29.3,27.7,00.0,38.1,31.1,27.2,0000.0,0001.19,0001.04,0001.00
2022-09-10 07:53:00,,0830.4,5.00,0.00,29.3,27.6,00.0,38.1,31.1,26.5,0000.0,0001.14,0001.02,0000.99
2022-09-10 07:54:00,,0830.4,5.00,0.00,29.3,27.6,00.0,38.1,31.1,26.1,0000.0,0001.12,0001.01,0000.98
2022-09-10 07:55:00,,0830.4,5.00,0.00,29.3,27.7,00.0,38.1,31.1,26.0,0000.0,0001.10,0001.00,0000.97
2022-09-10 07:56:00,,0830.4,5.00,0.00,29.3,27.7,00.0,38.1,31.1,25.9,0000.0,0001.11,0000.99,0000.96
2022-09-10 07:57:00,,0830.4,5.00,0.00,29.3,27.6,00.0,38.1,31.1,25.9,0000.0,0001.12,0001.00,0000.97
2022-09-10 07:58:00,,0830.4,5.00,0.00,29.3,27.7,00.0,38.1,31.1,25.9,0000.0,0001.08,0000.99,0000.97
2022-09-10 07:59:00,,0830.4,5.00,0.00,29.3,27.7,00.0,38.1,31.1,25.9,0000.0,0001.13,0001.00,0000.98
